• In Belarus
  • List of Countries
  • For 7 days
  • Water Temperature
  • Satellite Maps
  • Weather Map
  • Weather Widgets
  • user-avatar
    Login

    Hourly Weather La Esperanza

    Today, 24 September, Monday

    Time Temperature Precipitation Wind Pressure Humidity
    00:00 +15°C° 0 mm 1 mps 616 mmHg 90%
    01:00 +14°C° 0 mm 1 mps 616 mmHg 91%
    02:00 +14°C° 0 mm 1 mps 616 mmHg 92%
    03:00 +14°C° 0 mm 1 mps 615 mmHg 93%
    04:00 +14°C° 0 mm 1 mps 615 mmHg 93%
    05:00 +14°C° 0 mm 1 mps 615 mmHg 93%
    06:00 +13°C° 0 mm 1 mps 615 mmHg 93%
    07:00 +16°C° 0 mm 1 mps 617 mmHg 83%
    08:00 +19°C° 0 mm 1 mps 618 mmHg 72%
    09:00 +22°C° 0 mm 1 mps 619 mmHg 62%
    10:00 +23°C° 0 mm 1 mps 619 mmHg 53%
    11:00 +25°C° 0 mm 2 mps 619 mmHg 44%
    12:00 +27°C° 0 mm 2 mps 620 mmHg 35%
    13:00 +27°C° 0 mm 2 mps 619 mmHg 35%
    14:00 +27°C° 0 mm 2 mps 619 mmHg 35%
    15:00 +27°C° 0 mm 2 mps 618 mmHg 35%
    16:00 +24°C° 0 mm 2 mps 617 mmHg 45%
    17:00 +20°C° 0 mm 2 mps 617 mmHg 55%
    18:00 +18°C° 0 mm 1 mps 616 mmHg 66%
    19:00 +16°C° 0 mm 1 mps 616 mmHg 71%
    20:00 +16°C° 0 mm 1 mps 616 mmHg 77%
    21:00 +15°C° 0 mm 1 mps 617 mmHg 82%
    22:00 +15°C° 0 mm 1 mps 617 mmHg 85%
    23:00 +14°C° 0 mm 1 mps 617 mmHg 87%

    Tomorrow, 25 September, Tuesday

    Time Temperature Precipitation Wind Pressure Humidity
    00:00 +14°C° 0 mm 1 mps 616 mmHg 90%
    01:00 +14°C° 0 mm 1 mps 616 mmHg 91%
    02:00 +14°C° 0 mm 1 mps 616 mmHg 92%
    03:00 +13°C° 0 mm 1 mps 615 mmHg 93%
    04:00 +13°C° 0 mm 1 mps 615 mmHg 93%
    05:00 +13°C° 0 mm 1 mps 615 mmHg 93%
    06:00 +13°C° 0 mm 1 mps 615 mmHg 93%
    07:00 +16°C° 0 mm 1 mps 617 mmHg 81%
    08:00 +19°C° 0 mm 1 mps 618 mmHg 68%
    09:00 +22°C° 0 mm 1 mps 620 mmHg 56%
    10:00 +24°C° 0 mm 1 mps 620 mmHg 49%
    11:00 +25°C° 0 mm 2 mps 620 mmHg 41%
    12:00 +27°C° 0 mm 2 mps 620 mmHg 34%
    13:00 +26°C° 0 mm 2 mps 619 mmHg 39%
    14:00 +25°C° 0 mm 2 mps 618 mmHg 43%
    15:00 +24°C° 0 mm 2 mps 617 mmHg 47%
    16:00 +22°C° 0.6 mm 1 mps 617 mmHg 56%
    17:00 +20°C° 0.6 mm 1 mps 617 mmHg 65%
    18:00 +18°C° 0.6 mm 1 mps 616 mmHg 74%
    19:00 +18°C° 1.2 mm 1 mps 617 mmHg 79%
    20:00 +16°C° 1.2 mm 1 mps 617 mmHg 84%
    21:00 +16°C° 1.2 mm 1 mps 618 mmHg 89%
    22:00 +15°C° 0.7 mm 1 mps 617 mmHg 90%
    23:00 +15°C° 0.7 mm 1 mps 617 mmHg 91%

    Day after tomorrow, 26 September, Wednesday

    Time Temperature Precipitation Wind Pressure Humidity
    00:00 +15°C° 0.7 mm 1 mps 617 mmHg 92%
    01:00 +15°C° 0.3 mm 1 mps 616 mmHg 92%
    02:00 +14°C° 0.3 mm 1 mps 616 mmHg 93%
    03:00 +14°C° 0.3 mm 1 mps 615 mmHg 93%
    04:00 +14°C° 0.1 mm 1 mps 615 mmHg 93%
    05:00 +14°C° 0.1 mm 1 mps 616 mmHg 93%
    06:00 +14°C° 0.1 mm 1 mps 616 mmHg 93%
    07:00 +15°C° 0.1 mm 1 mps 617 mmHg 88%
    08:00 +18°C° 0.1 mm 1 mps 618 mmHg 83%
    09:00 +20°C° 0.1 mm 1 mps 619 mmHg 78%
    10:00 +21°C° 0.3 mm 1 mps 619 mmHg 71%
    11:00 +22°C° 0.3 mm 1 mps 619 mmHg 65%
    12:00 +24°C° 0.3 mm 2 mps 619 mmHg 58%
    13:00 +23°C° 0.7 mm 1 mps 618 mmHg 62%
    14:00 +22°C° 0.7 mm 1 mps 617 mmHg 66%
    15:00 +22°C° 0.7 mm 1 mps 617 mmHg 69%
    16:00 +20°C° 0.6 mm 1 mps 616 mmHg 75%
    17:00 +19°C° 0.6 mm 1 mps 616 mmHg 82%
    18:00 +16°C° 0.6 mm 1 mps 615 mmHg 88%
    19:00 +16°C° 0.4 mm 1 mps 616 mmHg 89%
    20:00 +15°C° 0.4 mm 1 mps 616 mmHg 91%
    21:00 +15°C° 0.4 mm 1 mps 617 mmHg 92%
    22:00 +15°C° 0.1 mm 1 mps 617 mmHg 92%
    23:00 +15°C° 0.1 mm 1 mps 616 mmHg 92%

    27 September, Thursday

    Time Temperature Precipitation Wind Pressure Humidity
    00:00 +15°C° 0.1 mm 1 mps 616 mmHg 92%
    01:00 +14°C° 0.1 mm 1 mps 616 mmHg 92%
    02:00 +14°C° 0.1 mm 1 mps 615 mmHg 93%
    03:00 +14°C° 0.1 mm 1 mps 615 mmHg 93%
    04:00 +14°C° 0 mm 1 mps 615 mmHg 93%
    05:00 +13°C° 0 mm 1 mps 615 mmHg 93%
    06:00 +13°C° 0 mm 1 mps 615 mmHg 93%
    07:00 +16°C° 0 mm 1 mps 617 mmHg 83%
    08:00 +19°C° 0 mm 1 mps 618 mmHg 73%
    09:00 +22°C° 0 mm 1 mps 620 mmHg 63%
    10:00 +23°C° 0.4 mm 1 mps 619 mmHg 60%
    11:00 +24°C° 0.4 mm 2 mps 619 mmHg 56%
    12:00 +25°C° 0.4 mm 2 mps 619 mmHg 53%
    13:00 +25°C° 0.5 mm 2 mps 618 mmHg 56%
    14:00 +24°C° 0.5 mm 2 mps 618 mmHg 58%
    15:00 +24°C° 0.5 mm 1 mps 617 mmHg 61%
    16:00 +22°C° 0.5 mm 1 mps 616 mmHg 68%
    17:00 +20°C° 0.5 mm 1 mps 616 mmHg 74%
    18:00 +18°C° 0.5 mm 1 mps 616 mmHg 81%
    19:00 +16°C° 0.5 mm 1 mps 616 mmHg 85%
    20:00 +15°C° 0.5 mm 1 mps 617 mmHg 89%
    21:00 +15°C° 0.5 mm 1 mps 617 mmHg 93%
    22:00 +14°C° 0.1 mm 1 mps 617 mmHg 94%
    23:00 +14°C° 0.1 mm 1 mps 616 mmHg 94%

    28 September, Friday

    Time Temperature Precipitation Wind Pressure Humidity
    00:00 +14°C° 0.1 mm 1 mps 616 mmHg 95%
    01:00 +14°C° 0 mm 1 mps 616 mmHg 95%
    02:00 +14°C° 0 mm 1 mps 616 mmHg 95%
    03:00 +14°C° 0 mm 1 mps 615 mmHg 95%
    04:00 +14°C° 0 mm 1 mps 616 mmHg 94%
    05:00 +14°C° 0 mm 1 mps 616 mmHg 94%
    06:00 +13°C° 0 mm 1 mps 616 mmHg 94%
    07:00 +16°C° 0 mm 1 mps 618 mmHg 83%
    08:00 +19°C° 0 mm 1 mps 619 mmHg 72%
    09:00 +21°C° 0 mm 2 mps 620 mmHg 61%
    10:00 +23°C° 0 mm 2 mps 620 mmHg 55%
    11:00 +25°C° 0 mm 2 mps 620 mmHg 49%
    12:00 +26°C° 0 mm 2 mps 620 mmHg 43%
    13:00 +25°C° 0.1 mm 2 mps 619 mmHg 47%
    14:00 +24°C° 0.1 mm 2 mps 618 mmHg 51%
    15:00 +24°C° 0.1 mm 1 mps 617 mmHg 56%
    16:00 +22°C° 0.6 mm 1 mps 617 mmHg 64%
    17:00 +20°C° 0.6 mm 1 mps 617 mmHg 73%
    18:00 +18°C° 0.6 mm 1 mps 617 mmHg 82%
    19:00 +16°C° 0.7 mm 1 mps 617 mmHg 86%
    20:00 +16°C° 0.7 mm 1 mps 617 mmHg 90%
    21:00 +15°C° 0.7 mm 1 mps 617 mmHg 93%
    22:00 +15°C° 0.3 mm 1 mps 617 mmHg 93%
    23:00 +15°C° 0.3 mm 1 mps 617 mmHg 93%

    29 September, Saturday

    Time Temperature Precipitation Wind Pressure Humidity
    00:00 +15°C° 0.3 mm 1 mps 617 mmHg 93%
    01:00 +15°C° 0.1 mm 1 mps 617 mmHg 93%
    02:00 +15°C° 0.1 mm 1 mps 617 mmHg 93%
    03:00 +15°C° 0.1 mm 1 mps 616 mmHg 93%
    04:00 +15°C° 0 mm 1 mps 617 mmHg 93%
    05:00 +15°C° 0 mm 1 mps 617 mmHg 93%
    06:00 +14°C° 0 mm 1 mps 617 mmHg 93%
    07:00 +16°C° 0.1 mm 2 mps 618 mmHg 86%
    08:00 +18°C° 0.1 mm 2 mps 619 mmHg 78%
    09:00 +20°C° 0.1 mm 2 mps 620 mmHg 71%
    10:00 +21°C° 0.2 mm 2 mps 620 mmHg 65%
    11:00 +24°C° 0.2 mm 2 mps 620 mmHg 58%
    12:00 +25°C° 0.2 mm 2 mps 620 mmHg 52%
    13:00 +25°C° 0.4 mm 2 mps 619 mmHg 56%
    14:00 +24°C° 0.4 mm 2 mps 618 mmHg 59%
    15:00 +24°C° 0.4 mm 2 mps 617 mmHg 63%
    16:00 +21°C° 0.7 mm 2 mps 617 mmHg 70%
    17:00 +20°C° 0.7 mm 1 mps 617 mmHg 78%
    18:00 +18°C° 0.7 mm 1 mps 616 mmHg 85%
    19:00 +16°C° 0.5 mm 1 mps 617 mmHg 88%
    20:00 +15°C° 0.5 mm 1 mps 617 mmHg 90%
    21:00 +15°C° 0.5 mm 1 mps 617 mmHg 93%
    22:00 +14°C° 0.1 mm 1 mps 617 mmHg 93%
    23:00 +14°C° 0.1 mm 1 mps 617 mmHg 93%
    Show more